Lexington Weather

Lexington, Massachusetts, USA

72°F
9/22/2021 2:37pm 
  • Lexington Conditions: Overcast
  • Temperature: 71.8°F / 22.1°CColder 1.8°F than last hour.
  • Dew Point: 69.1°FIncreased 0.9°Fsince last hour.
  • Relative Humidity: 91%Increased 8.0% since last hour.
  • Wind: Wind from W W 3 mph, 10-min avg: 2 mph, gust: 11 mph
  • Barometer: 30.08 inFalling 0.02  inHg/hr Falling Slowly
  • Visibility: 10 miles
  • Rain Today: 0.00 in
  •   

Regional Weather Roundup
for Boston / Norton, MA

        
000
ASUS41 KBOX 221605
RWRBOX

REGIONAL WEATHER ROUNDUP
NATIONAL WEATHER SERVICE BOSTON/NORTON MA
1200 PM EDT WED SEP 22 2021

NOTE:  "FAIR" INDICATES FEW OR NO CLOUDS BELOW 12,000 FEET WITH NO 
SIGNIFICANT WEATHER AND/OR OBSTRUCTIONS TO VISIBILITY.

MAZALL-221700-
EASTERN MASSACHUSETTS
  
CITY           SKY/WX    TMP DP  RH WIND       PRES   REMARKS
BOSTON         CLOUDY    76  66  71 SE10      30.19F                  
BEVERLY        CLOUDY    75  68  78 SE15      30.19F                  
LAWRENCE       PTSUNNY   76  67  73 SE9       30.20F                  
BEDFORD        CLOUDY    77  68  73 S10G20    30.17F                  
BLUE HILL      NOT AVBL                                               
NORWOOD        CLOUDY    78  66  66 S16G25    30.18F                  
MARSHFIELD     PTSUNNY   73  66  78 SE9G15    30.20F                  
PLYMOUTH       PTSUNNY   76  66  71 S10G18    30.20F                  
TAUNTON        CLOUDY    76  66  71 S13G22    30.20S                  
NEW BEDFORD    CLOUDY    76  68  76 S14       30.19F                  
$$

MAZALL-221700-
CAPE COD AND THE ISLANDS
  
CITY           SKY/WX    TMP DP  RH WIND       PRES   REMARKS
FALMOUTH       NOT AVBL                                               
HYANNIS        SUNNY     75  68  78 SE12G17   30.20F                  
CHATHAM        SUNNY     74  65  73 SE9       30.24F                  
PROVINCETOWN   CLOUDY    75  67  76 S13G18    30.22F                  
NANTUCKET      SUNNY     73  63  70 SE14      30.22F                  
MARTHAS VNYRD  CLOUDY    76  69  79 SE18G25   30.20F                  
$$
 
MAZALL-221700-
CENTRAL AND WESTERN MASSACHUSETTS
  
CITY           SKY/WX    TMP DP  RH WIND       PRES   REMARKS
WORCESTER      LGT RAIN  69  68  96 SE12      30.20F FOG              
FITCHBURG      LGT RAIN  73  67  81 S8        30.18F                  
ORANGE         LGT RAIN  73  69  87 S9        30.17F FOG              
SPRINGFIELD    LGT RAIN  76  67  73 SE10      30.12F                  
WESTFIELD      PTSUNNY   76  71  85 S6        30.13F                  
NORTH ADAMS    PTSUNNY   76  65  68 SE12G25   30.12F                  
PITTSFIELD     CLOUDY    72  65  78 SE8       30.13F                  
$$
 
RIZALL-221700-
RHODE ISLAND
  
CITY           SKY/WX    TMP DP  RH WIND       PRES   REMARKS
PROVIDENCE     LGT RAIN  72  70  93 S13G23    30.19F FOG              
NEWPORT        LGT RAIN  70  69  97 SE9       30.19F FOG              
BLOCK ISLAND   CLOUDY    72  68  87 S14       30.18F                  
SMITHFIELD     LGT RAIN  70  68  93 VRB7      30.19F FOG              
WESTERLY       CLOUDY    71  70  96 SE8       30.17F                  
$$
 
CTZALL-221700-
CONNECTICUT
  
CITY           SKY/WX    TMP DP  RH WIND       PRES   REMARKS
BRADLEY INTL   PTSUNNY   77  70  79 S9        30.13F                  
HARTFORD       PTSUNNY   79  69  71 S13G20    30.12F                  
BRIDGEPORT     LGT RAIN  77  72  84 SE10      30.12F                  
DANBURY        PTSUNNY   77  68  73 VRB7      30.13F                  
GROTON         CLOUDY    74  70  87 S16       30.15F                  
NEW HAVEN      CLOUDY    79  73  82 SE7       30.13F                  
CHESTER        CLOUDY    75  72  88 NE10      30.16F                  
MERIDEN        CLOUDY    76  68  76 S10       30.13F                  
WILLIMANTIC    LGT RAIN  72  69  90 VRB5      30.16F FOG              
OXFORD         PTSUNNY   75  70  84 S10       30.15F                  
$$

MEZ002-015-021-024-NHZ003-005-008-011-012-014-VTZ005-008-221700-
NORTHERN NEW ENGLAND
  
CITY           SKY/WX    TMP DP  RH WIND       PRES   REMARKS
PORTLAND ME    PTSUNNY   71  64  78 S16G24    30.21F                  
BANGOR ME      PTSUNNY   73  64  73 S14       30.23F                  
CONCORD NH     PTSUNNY   75  67  76 S12       30.17F                  
MANCHESTER NH  PTSUNNY   77  66  68 S8        30.16F                  
NASHUA NH      CLOUDY    77  70  79 VRB7      30.17F                  
PORTSMOUTH NH  PTSUNNY   74  65  74 SE13      30.20S                  
JAFFREY NH     LGT RAIN  71  69  93 S10       30.19S FOG              
KEENE NH       CLOUDY    76  67  73 S10       30.15F                  
BURLINGTON VT  CLOUDY    72  64  76 S7        30.08F                  
MT. WASHINGTON LGT RAIN  50  50 100 S40G51      N/A  VSB 0            
$$

NYZ052-076-221700-
EASTERN NEW YORK
  
CITY           SKY/WX    TMP DP  RH WIND       PRES   REMARKS
ALBANY         PTSUNNY   74  67  78 SE16G24   30.09F                  
NEW YORK CITY  PTSUNNY   74  68  81 S16       30.09F                  
$$
 
ANZALL-221700-
MARINE OBSERVATIONS
  
STATION/POSITION TIME  TEMP    WIND        PRES    VSBY  WAVE
                       AIR SEA DIR/SP/G                  HT/PER
                 (UTC) (F)     (DEG/KT/KT) (MB)    (MI)  (FT/S)
BOSTON BUOY      1540      64  140/ 14/ 16 1022.9F
BUZZARDS BAY     1500          130/ 17/ 19 1023.7F
NANTUCKET SOUND  1540   73 72  140/ 14/ 16 1023.1F
MASS BAY-STELLWA 1504   67     160/ 14/ 16 1022.7F  1 7/8  3/ 5
ISLE OF SHOALS   1500   67     170/ 13/ 14 1022.8F
S OF BLOCK IS    1526      70                N/A           5/ 6
$$

......................KEY.........................
  SKY/WX - SKY CONDITION/PRESENT WEATHER
  TMP    - TEMPERATURE IN FAHRENHEIT
  DWPT   - DEWPOINT IN FAHRENHEIT
  RH     - RELATIVE HUMIDITY IN PERCENT
  WIND   - DIRECTION AND SPEED IN MPH
  PRES   - MEAN SEA LEVEL PRESSURE IN INCHES OF HG
  WCI    - WIND CHILL INDEX
  VSB    - VISIBILITY IN MILES
  HX     - HEAT INDEX
  TC     - TEMPERATURE IN CELSIUS
  VRB    - VARIABLE WIND DIRECTION
  N/A    - NOT AVAILABLE
  
      

Other recent Regional Weather Roundups

Wed Sep 22, 2:04pm

Wed Sep 22, 1:04pm

Wed Sep 22, 11:04am

Wed Sep 22, 10:04am

Wed Sep 22, 9:04am

Wed Sep 22, 8:04am

Wed Sep 22, 7:04am

Wed Sep 22, 6:04am

Wed Sep 22, 5:04am

Wed Sep 22, 4:04am

Wed Sep 22, 3:04am

Wed Sep 22, 2:04am

Wed Sep 22, 1:04am

Wed Sep 22, 12:04am

Tue Sep 21, 11:04pm

Tue Sep 21, 10:04pm

Tue Sep 21, 9:04pm

Tue Sep 21, 8:04pm

Tue Sep 21, 7:04pm

Tue Sep 21, 6:04pm

Tue Sep 21, 5:04pm

Tue Sep 21, 4:04pm

Tue Sep 21, 3:04pm

Tue Sep 21, 2:04pm

Tue Sep 21, 1:04pm

Tue Sep 21, 12:04pm

Tue Sep 21, 11:04am

Tue Sep 21, 10:04am

Tue Sep 21, 9:04am

Tue Sep 21, 8:04am

Tue Sep 21, 7:04am

Tue Sep 21, 6:04am

Tue Sep 21, 5:04am

Tue Sep 21, 4:04am

Tue Sep 21, 3:04am

Tue Sep 21, 2:04am

Tue Sep 21, 1:04am

Tue Sep 21, 12:04am

Mon Sep 20, 11:04pm

Mon Sep 20, 10:04pm

Mon Sep 20, 9:04pm

Mon Sep 20, 8:04pm

Mon Sep 20, 7:04pm

Mon Sep 20, 6:04pm

Mon Sep 20, 5:04pm

Mon Sep 20, 4:04pm

Mon Sep 20, 3:04pm

Mon Sep 20, 2:04pm

Mon Sep 20, 1:04pm

Mon Sep 20, 12:04pm

Mon Sep 20, 11:04am

Mon Sep 20, 10:04am

Mon Sep 20, 9:04am

Mon Sep 20, 7:04am

Mon Sep 20, 6:04am

Mon Sep 20, 5:04am

Mon Sep 20, 4:04am

Mon Sep 20, 3:04am

Mon Sep 20, 2:04am

Mon Sep 20, 1:04am

Mon Sep 20, 12:04am

Sun Sep 19, 11:04pm

Sun Sep 19, 10:04pm

Sun Sep 19, 9:04pm

Sun Sep 19, 8:04pm

Sun Sep 19, 7:04pm

Sun Sep 19, 6:04pm

Sun Sep 19, 5:04pm

Sun Sep 19, 4:04pm

Sun Sep 19, 3:04pm

Sun Sep 19, 2:05pm

Sun Sep 19, 1:04pm

Sun Sep 19, 12:04pm

Sun Sep 19, 11:04am

Sun Sep 19, 10:05am

Sun Sep 19, 9:04am

Sun Sep 19, 8:04am

Sun Sep 19, 7:04am

Sun Sep 19, 6:04am

Sun Sep 19, 5:04am

Sun Sep 19, 4:04am

Sun Sep 19, 3:04am

Sun Sep 19, 2:04am

Sun Sep 19, 1:04am

Sun Sep 19, 12:04am

Sat Sep 18, 11:05pm

Sat Sep 18, 10:04pm

Sat Sep 18, 9:04pm

Sat Sep 18, 8:04pm

Sat Sep 18, 7:04pm

Sat Sep 18, 6:04pm

Sat Sep 18, 5:04pm

Sat Sep 18, 4:04pm

Sat Sep 18, 3:04pm

Sat Sep 18, 2:04pm

Sat Sep 18, 1:04pm

Sat Sep 18, 12:04pm

Sat Sep 18, 11:04am

Sat Sep 18, 10:04am

Sat Sep 18, 9:04am

Sat Sep 18, 8:04am

Sat Sep 18, 7:04am

Sat Sep 18, 6:04am

Sat Sep 18, 5:04am

Sat Sep 18, 4:04am

Sat Sep 18, 3:04am

Sat Sep 18, 2:04am

Sat Sep 18, 1:04am

Sat Sep 18, 12:04am

Fri Sep 17, 11:04pm

Fri Sep 17, 10:04pm

Fri Sep 17, 9:04pm

Fri Sep 17, 8:04pm

Fri Sep 17, 7:04pm

Fri Sep 17, 6:04pm

Fri Sep 17, 5:04pm

Fri Sep 17, 4:04pm

Fri Sep 17, 3:04pm

Fri Sep 17, 2:04pm

Fri Sep 17, 1:04pm

Fri Sep 17, 12:05pm

Fri Sep 17, 11:04am

Fri Sep 17, 10:04am

Fri Sep 17, 9:04am

Fri Sep 17, 8:04am

Fri Sep 17, 7:04am

Fri Sep 17, 6:04am

Fri Sep 17, 5:04am

Fri Sep 17, 4:04am

Fri Sep 17, 3:04am

Fri Sep 17, 2:04am

Fri Sep 17, 1:04am

Fri Sep 17, 12:04am

Thu Sep 16, 11:04pm

Thu Sep 16, 10:04pm

Thu Sep 16, 9:04pm

Thu Sep 16, 8:04pm

Thu Sep 16, 7:04pm

Thu Sep 16, 6:04pm

Thu Sep 16, 5:04pm

Thu Sep 16, 4:04pm

Thu Sep 16, 3:04pm

Thu Sep 16, 2:04pm

Thu Sep 16, 1:05pm

Thu Sep 16, 12:04pm

Thu Sep 16, 11:05am

Thu Sep 16, 10:05am

Thu Sep 16, 9:04am

Thu Sep 16, 8:04am

Thu Sep 16, 7:04am

Thu Sep 16, 6:04am

Thu Sep 16, 5:04am

Thu Sep 16, 4:04am

Thu Sep 16, 3:04am

Thu Sep 16, 2:04am

Thu Sep 16, 1:04am

Thu Sep 16, 12:04am

Wed Sep 15, 11:04pm

Wed Sep 15, 10:04pm

Wed Sep 15, 9:04pm

Wed Sep 15, 8:04pm

Wed Sep 15, 7:04pm

Wed Sep 15, 6:04pm

Wed Sep 15, 5:05pm

Wed Sep 15, 4:04pm

Wed Sep 15, 3:04pm

Meta data:

ID: 2500c954-d8db-48dc-97c7-70a73ca55571
Link: https://api.weather.gov/products/2500c954-d8db-48dc-97c7-70a73ca55571